Aérodrome :
LOGIN :

S'inscrire | Disclaimer

   EN    FR    IT 

 










Légende :    VFR   VFR Marginal   IFR   IFR Intensif   IFR Très Intensif
Visi : 
Plafond : 
>= 8 km
>= 3000ft
5 à 8 km
1000 à 3000 ft
1500m à 5 km
500 à 1000 ft
800 à 1500m
200 à 500 ft
< 800m
< 200 ft
Symboles :   Orages  Brouillard  Fortes neiges  Fortes précipitations  Vent > 20 kt
SIGMETs :   Divers  Orages  Givrage  Turbulence  Onde Orograph.  Cendres Volcan.







- Altitude de l'aérodrome : 408 ft
- Code IATA : FKB


EDSB - Karlsruhe Baden Baden

DERNIER METAR :
  • 241220Z 35009KT CAVOK 21/08 Q1021

METARs EXPIRÉS :
  • 241150Z 35007KT 300V040 CAVOK 21/07 Q1021
  • 241120Z 03007KT 320V080 CAVOK 21/06 Q1021
  • 241050Z 36008KT 320V070 CAVOK 20/09 Q1021
  • 241020Z 36007KT 320V040 CAVOK 19/08 Q1022
  • 240950Z 35007KT 330V030 CAVOK 19/09 Q1022

TAF TAF EDSB
Valide du 24 à 12h jusqu'au 25 à 12h UTC


241100Z 2412/2512 01008KT CAVOK
TEMPO 2422/2506 VRB03KT
Pas de NOTAMs connus pour ce terrain.



MET'MAP, la Météo Aéronautique d'un coup d'oeil ! - Copyright ORBIFLY Décembre 2007 - Disclaimer

ORBIFLY MET'MAP TEAM :

Programmation & Développement : Alexandra Zaïnal
Conception & Développement : Baudouin d'Aumeries
Co-Programmation & Développement : Marc-Olivier Méhu
Soutien technique & logistique : Manuel Goepfert

Contact : metmap@orbifly.com




SOURCES & CREDITS :

   NOAA